Location: Caltech
(34.1382°N, 118.1253°W)
Time: 17:18:56
(UTC-07:00)

AO-7 - Visible Passes

Search period start: 25 June 2017 00:00
Search period end: 05 July 2017 00:00
Orbit: 1440 x 1458 km, 101.6° (Epoch: 25 June)

Date Brightness Start Highest point End Pass type
(mag) Time Alt. Az. Time Alt. Az. Time Alt. Az.
25 Jun ? 04:16:34 10° NNE 04:24:55 65° ESE 04:33:10 10° S visible
26 Jun ? 03:18:02 10° NE 03:24:38 25° E 03:31:11 10° SSE visible
26 Jun ? 05:09:31 10° N 05:17:44 61° WNW 05:25:55 10° SW visible
27 Jun ? 04:09:40 10° NNE 04:17:55 58° ESE 04:26:06 10° S visible
28 Jun ? 03:11:23 10° NE 03:17:35 22° E 03:23:44 10° SE visible
28 Jun ? 05:02:30 10° N 05:10:48 68° WNW 05:19:03 10° SSW visible
29 Jun ? 04:02:47 10° NNE 04:10:56 53° ESE 04:19:00 10° S visible
30 Jun ? 03:04:49 10° NE 03:10:32 20° E 03:16:11 10° SE visible
30 Jun ? 04:55:30 10° NNE 05:03:52 74° WNW 05:12:11 10° SSW visible
01 Jul ? 03:55:55 10° NNE 04:03:56 47° ESE 04:11:52 10° S visible
02 Jul ? 02:58:20 10° NE 03:03:28 17° E 03:08:33 10° SE visible
02 Jul ? 04:48:31 10° NNE 04:56:55 82° WNW 05:05:16 10° SSW visible
03 Jul ? 03:49:04 10° NNE 03:56:55 43° E 04:04:41 10° S visible
04 Jul ? 02:51:59 10° ENE 02:56:24 15° E 03:00:46 10° SE visible
04 Jul ? 04:41:32 10° NNE 04:49:58 89° WNW 04:58:20 10° SSW visible
